START_TIME,STEP,MOV.,M29,t_acc.,H22,t_acc.,H26,t_acc.,H30,t_acc.
1979-03-02 07:23:09.370 ,0,0,0.,24.0,0.,24.0,0.,24.0,0.,24.0
1979-03-02 07:23:33.370 ,7,1,0.,24.0,0.,24.0,0.,24.0,0.,24.0
1979-03-02 07:23:57.370 ,7,1,0.,24.0,0.,24.0,0.,24.0,0.,24.0
1979-03-02 07:24:21.370 ,6,1,0.,24.0,0.,24.0,0.,24.0,0.,24.0
1979-03-02 07:24:45.370 ,5,1,0.,24.0,0.,24.0,0.,24.0,0.,24.0
1979-03-02 07:25:09.370 ,4,1,0.,24.0,0.,24.0,0.,24.0,0.,24.0
1979-03-02 07:25:33.370 ,3,1,0.,24.0,0.,24.0,0.,24.0,0.,24.0
1979-03-02 07:25:57.370 ,2,1,0.,24.0,0.,24.0,0.,24.0,0.,24.0
1979-03-02 07:26:21.370 ,1,1,0.,24.0,0.,24.0,0.,24.0,0.,24.0
1979-03-02 07:26:45.370 ,0,1,0.,24.0,0.,24.0,0.,24.0,0.,24.0
1979-03-02 07:27:09.370 ,0,1,0.,24.0,0.,24.0,0.,24.0,0.,24.0
1979-03-02 07:27:33.370 ,1,1,0.,24.0,0.,24.0,0.,24.0,0.,24.0
1979-03-02 07:27:57.370 ,2,1,0.,24.0,0.,24.0,0.,24.0,0.,24.0
1979-03-02 07:28:21.370 ,3,1,0.,24.0,0.,24.0,0.,24.0,0.,24.0
1979-03-02 07:28:45.370 ,4,1,0.,24.0,0.,24.0,0.,24.0,0.,24.0
1979-03-02 07:29:09.370 ,5,1,0.,24.0,0.,24.0,0.,24.0,0.,24.0
1979-03-02 07:29:33.370 ,6,1,0.,24.0,0.,24.0,0.,24.0,0.,24.0
1979-03-02 07:29:57.370 ,7,1,0.,24.0,0.,24.0,0.,24.0,0.,24.0
1979-03-02 07:30:21.370 ,7,1,0.,24.0,0.,24.0,0.,24.0,0.,24.0
1979-03-02 07:30:45.370 ,6,1,0.,24.0,0.,24.0,0.,24.0,0.,24.0
1979-03-02 07:31:09.370 ,5,1,0.,24.0,0.,24.0,0.,24.0,0.,24.0
1979-03-02 07:31:33.370 ,4,1,0.,24.0,0.,24.0,0.,24.0,0.,24.0
1979-03-02 07:31:57.370 ,3,1,0.,24.0,0.,24.0,0.,24.0,0.,24.0
1979-03-02 07:32:21.370 ,2,1,0.,24.0,0.,24.0,0.,24.0,0.,24.0
1979-03-02 07:32:45.370 ,1,1,0.,24.0,0.,24.0,0.,24.0,0.,24.0
1979-03-02 07:33:09.370 ,0,1,0.,24.0,0.,24.0,0.,24.0,0.,24.0
1979-03-02 07:33:33.370 ,0,1,0.,24.0,0.,24.0,0.,24.0,0.,24.0
1979-03-02 07:33:57.370 ,1,1,0.,24.0,0.,24.0,0.,24.0,0.,24.0
1979-03-02 07:34:21.370 ,2,1,0.,24.0,0.,24.0,0.,24.0,0.,24.0
1979-03-02 07:34:45.370 ,3,1,0.,24.0,0.,24.0,0.,24.0,0.,24.0
1979-03-02 07:35:09.370 ,4,1,0.,24.0,0.,24.0,0.,24.0,0.,24.0
1979-03-02 07:35:33.370 ,5,1,0.,24.0,0.,24.0,0.,24.0,0.,24.0
1979-03-02 07:35:57.370 ,6,1,0.,24.0,0.,24.0,0.,24.0,0.,24.0
1979-03-02 07:36:21.370 ,7,1,0.,24.0,0.,24.0,0.,24.0,0.,24.0
1979-03-02 07:36:45.370 ,7,1,0.,24.0,0.,24.0,0.,24.0,0.,24.0
1979-03-02 07:37:09.370 ,6,1,0.,24.0,0.,24.0,0.,24.0,0.,24.0
1979-03-02 07:37:33.370 ,5,1,0.,24.0,0.,24.0,0.,24.0,0.,24.0
1979-03-02 07:37:57.370 ,4,1,0.,24.0,0.,24.0,0.,24.0,0.,24.0
1979-03-02 07:38:21.370 ,3,1,0.,24.0,0.,24.0,0.,24.0,0.,24.0
1979-03-02 07:38:45.370 ,2,1,0.,24.0,0.,24.0,0.,24.0,0.,24.0
1979-03-02 07:39:09.370 ,1,1,0.,24.0,0.,24.0,0.,24.0,0.,24.0
1979-03-02 07:39:33.370 ,0,1,0.,24.0,0.,24.0,0.,24.0,0.,24.0
1979-03-02 07:39:57.370 ,0,1,0.,24.0,0.,24.0,0.,24.0,0.,24.0
1979-03-02 07:40:21.370 ,1,1,0.,24.0,0.,24.0,0.,24.0,0.,24.0
1979-03-02 07:40:45.370 ,2,1,0.,24.0,0.,24.0,0.,24.0,0.,24.0
1979-03-02 07:41:09.370 ,3,1,0.,24.0,0.,24.0,0.,24.0,0.,24.0
1979-03-02 07:41:33.370 ,4,1,0.,24.0,0.,24.0,0.,24.0,0.,24.0
1979-03-02 07:41:57.370 ,5,1,0.,24.0,0.,24.0,0.,24.0,0.,24.0
1979-03-02 07:42:21.370 ,6,1,0.,24.0,0.,24.0,0.,24.0,0.,24.0
1979-03-02 07:42:45.370 ,7,1,0.,24.0,0.,24.0,0.,24.0,0.,24.0
1979-03-02 07:43:09.370 ,7,1,0.,24.0,0.,24.0,0.,24.0,0.,24.0
1979-03-02 07:43:33.370 ,6,1,0.,24.0,0.,24.0,0.,24.0,0.,24.0
1979-03-02 07:43:57.370 ,5,1,0.,24.0,0.,24.0,0.,24.0,0.,24.0
1979-03-02 07:44:21.370 ,4,1,0.,24.0,0.,24.0,0.,24.0,0.,24.0
1979-03-02 07:44:45.370 ,3,1,0.,24.0,0.,24.0,0.,24.0,0.,24.0
1979-03-02 07:45:09.370 ,2,1,0.,24.0,0.,24.0,0.,24.0,0.,24.0
1979-03-02 07:45:33.370 ,1,1,0.,24.0,0.,24.0,0.,24.0,0.,24.0
1979-03-02 07:45:57.370 ,0,1,0.,24.0,0.,24.0,0.,24.0,0.,24.0
1979-03-02 07:46:21.370 ,0,1,0.,24.0,0.,24.0,0.,24.0,0.,24.0
1979-03-02 07:46:45.370 ,1,1,0.,24.0,0.,24.0,0.,24.0,0.,24.0
1979-03-02 07:47:09.370 ,2,1,0.,24.0,0.,24.0,0.,24.0,0.,24.0
1979-03-02 07:47:33.370 ,3,1,0.,24.0,0.,24.0,0.,24.0,0.,24.0
1979-03-02 07:47:57.370 ,4,1,0.,24.0,0.,24.0,0.,24.0,0.,24.0
1979-03-02 07:48:21.370 ,5,1,0.,24.0,0.,24.0,0.,24.0,0.,24.0
1979-03-02 07:48:45.370 ,6,1,0.,24.0,0.,24.0,0.,24.0,0.,24.0
1979-03-02 07:49:09.370 ,7,1,0.,24.0,0.,24.0,0.,24.0,0.,24.0
1979-03-02 07:49:33.370 ,7,1,0.,24.0,0.,24.0,0.,24.0,0.,24.0
1979-03-02 07:49:57.370 ,6,1,0.,24.0,0.,24.0,0.,24.0,0.,24.0
1979-03-02 07:50:21.370 ,5,1,0.,24.0,0.,24.0,0.,24.0,0.,24.0
1979-03-02 07:50:45.370 ,4,1,0.,24.0,0.,24.0,0.,24.0,0.,24.0
1979-03-02 07:51:09.370 ,3,1,0.,24.0,0.,24.0,0.,24.0,0.,24.0
1979-03-02 07:51:33.370 ,2,1,0.,24.0,0.,24.0,0.,24.0,0.,24.0
1979-03-02 07:51:57.370 ,1,1,0.,24.0,0.,24.0,0.,24.0,0.,24.0
1979-03-02 07:52:21.370 ,0,1,0.,24.0,0.,24.0,0.,24.0,0.,24.0
1979-03-02 07:52:45.370 ,0,1,0.,24.0,0.,24.0,0.,24.0,0.,24.0
1979-03-02 07:53:09.370 ,1,1,0.,24.0,0.,24.0,0.,24.0,0.,24.0
1979-03-02 07:53:33.370 ,2,1,0.,24.0,0.,24.0,0.,24.0,0.,24.0
1979-03-02 07:53:57.370 ,3,1,0.,24.0,0.,24.0,0.,24.0,0.,24.0
1979-03-02 07:54:21.370 ,4,1,0.,24.0,0.,24.0,0.,24.0,0.,24.0
1979-03-02 07:54:45.370 ,5,1,0.,24.0,0.,24.0,0.,24.0,0.,24.0
1979-03-02 07:55:09.370 ,6,1,0.,24.0,0.,24.0,0.,24.0,0.,24.0
1979-03-02 07:55:33.370 ,7,1,0.,24.0,0.,24.0,0.,24.0,0.,24.0
1979-03-02 07:55:57.370 ,7,1,0.,24.0,0.,24.0,0.,24.0,0.,24.0
1979-03-02 07:56:21.370 ,6,1,0.,24.0,0.,24.0,0.,24.0,0.,24.0
1979-03-02 07:56:45.370 ,5,1,0.,24.0,0.,24.0,0.,24.0,0.,24.0
1979-03-02 07:57:09.370 ,4,1,0.,24.0,0.,24.0,0.,24.0,0.,24.0
1979-03-02 07:57:33.370 ,3,1,0.,24.0,0.,24.0,0.,24.0,0.,24.0
1979-03-02 07:57:57.370 ,2,1,0.,24.0,0.,24.0,0.,24.0,0.,24.0
1979-03-02 07:58:21.370 ,1,1,0.,24.0,0.,24.0,0.,24.0,0.,24.0
1979-03-02 07:58:45.370 ,0,1,0.,24.0,0.,24.0,0.,24.0,0.,24.0
1979-03-02 07:59:09.370 ,0,1,0.,24.0,0.,24.0,0.,24.0,0.,24.0
1979-03-02 07:59:33.370 ,1,1,0.,24.0,0.,24.0,0.,24.0,0.,24.0
1979-03-02 07:59:57.370 ,2,1,0.,24.0,0.,24.0,0.,24.0,0.,24.0
1979-03-02 08:00:21.370 ,3,1,0.,24.0,0.,24.0,0.,24.0,0.,24.0
1979-03-02 08:00:45.370 ,4,1,0.,24.0,0.,24.0,0.,24.0,0.,24.0
1979-03-02 08:01:09.370 ,5,1,0.,24.0,0.,24.0,0.,24.0,0.,24.0
1979-03-02 08:01:33.370 ,6,1,0.,24.0,0.,24.0,0.,24.0,0.,24.0
1979-03-02 08:01:57.370 ,7,1,0.,24.0,0.,24.0,0.,24.0,0.,24.0
1979-03-02 08:02:21.370 ,7,1,0.,24.0,0.,24.0,0.,24.0,0.,24.0
1979-03-02 08:02:45.370 ,6,1,0.,24.0,0.,24.0,0.,24.0,0.,24.0
1979-03-02 08:03:09.370 ,5,1,0.,24.0,0.,24.0,0.,24.0,0.,24.0
1979-03-02 08:03:33.370 ,4,1,0.,24.0,0.,24.0,0.,24.0,0.,24.0
1979-03-02 08:03:57.370 ,3,1,0.,24.0,0.,24.0,0.,24.0,0.,24.0
1979-03-02 08:04:21.370 ,2,1,0.,24.0,0.,24.0,0.,24.0,0.,24.0
1979-03-02 08:04:45.370 ,1,1,0.,24.0,0.,24.0,0.,24.0,0.,24.0
1979-03-02 08:05:09.370 ,0,1,0.,24.0,0.,24.0,0.,24.0,0.,24.0
1979-03-02 08:05:33.370 ,0,1,0.,24.0,0.,24.0,0.,24.0,0.,24.0
1979-03-02 08:05:57.370 ,1,1,0.,24.0,0.,24.0,0.,24.0,0.,24.0
1979-03-02 08:06:21.370 ,2,1,0.,24.0,0.,24.0,0.,24.0,0.,24.0
1979-03-02 08:06:45.370 ,3,1,0.,24.0,0.,24.0,0.,24.0,0.,24.0
1979-03-02 08:07:09.370 ,4,1,0.,24.0,0.,24.0,0.,24.0,0.,24.0
1979-03-02 08:07:33.370 ,5,1,0.,24.0,0.,24.0,0.,24.0,0.,24.0
1979-03-02 08:07:57.370 ,6,1,0.,24.0,0.,24.0,0.,24.0,0.,24.0
1979-03-02 08:08:21.370 ,7,1,0.,24.0,0.,24.0,0.,24.0,0.,24.0
1979-03-02 08:08:45.370 ,7,1,0.,24.0,0.,24.0,0.,24.0,0.,24.0
1979-03-02 08:09:09.370 ,6,1,0.,24.0,0.,24.0,0.,24.0,0.,24.0
1979-03-02 08:09:33.370 ,5,1,0.,24.0,0.,24.0,0.,24.0,0.,24.0
1979-03-02 08:09:57.370 ,4,1,0.,24.0,0.,24.0,0.,24.0,0.,24.0
1979-03-02 08:10:21.370 ,3,1,0.,24.0,0.,24.0,0.,24.0,0.,24.0
1979-03-02 08:10:45.370 ,2,1,0.,24.0,0.,24.0,0.,24.0,0.,24.0
1979-03-02 08:11:09.370 ,1,1,0.,24.0,0.,24.0,0.,24.0,0.,24.0
1979-03-02 08:11:33.370 ,0,1,0.,24.0,0.,24.0,0.,24.0,0.,24.0
1979-03-02 08:11:57.370 ,0,1,0.,24.0,0.,24.0,0.,24.0,0.,24.0
1979-03-02 08:12:21.370 ,1,1,0.,24.0,0.,24.0,0.,24.0,0.,24.0
1979-03-02 08:12:45.370 ,2,1,0.,24.0,0.,24.0,0.,24.0,0.,24.0
1979-03-02 08:13:09.370 ,3,1,0.,24.0,0.,24.0,0.,24.0,0.,24.0
1979-03-02 08:13:33.370 ,4,1,0.,24.0,0.,24.0,0.,24.0,0.,24.0
1979-03-02 08:13:57.370 ,5,1,0.,24.0,0.,24.0,0.,24.0,0.,24.0
1979-03-02 08:14:21.370 ,6,1,0.,24.0,0.,24.0,0.,24.0,0.,24.0
1979-03-02 08:14:45.370 ,7,1,0.,24.0,0.,24.0,0.,24.0,0.,24.0
1979-03-02 08:15:09.370 ,7,1,0.,24.0,0.,24.0,0.,24.0,0.,24.0
1979-03-02 08:15:33.370 ,6,1,0.,24.0,0.,24.0,0.,24.0,0.,24.0
1979-03-02 08:15:57.370 ,5,1,0.,24.0,0.,24.0,0.,24.0,0.,24.0
1979-03-02 08:16:21.370 ,4,1,0.,24.0,0.,24.0,0.,24.0,0.,24.0
1979-03-02 08:16:45.370 ,3,1,0.,24.0,0.,24.0,0.,24.0,0.,24.0
1979-03-02 08:17:09.370 ,2,1,0.,24.0,0.,24.0,0.,24.0,0.,24.0
1979-03-02 08:17:33.370 ,1,1,0.,24.0,0.,24.0,0.,24.0,0.,24.0
1979-03-02 08:17:57.370 ,0,1,0.,24.0,0.,24.0,0.,24.0,0.,24.0
1979-03-02 08:18:21.370 ,0,1,0.,24.0,0.,24.0,0.,24.0,0.,24.0
1979-03-02 08:18:45.370 ,1,1,0.,24.0,0.,24.0,0.,24.0,0.,24.0
1979-03-02 08:19:09.370 ,2,1,0.,24.0,0.,24.0,0.,24.0,0.,24.0
1979-03-02 08:19:33.370 ,3,1,0.,24.0,0.,24.0,0.,24.0,0.,24.0
1979-03-02 08:19:57.370 ,4,1,0.,24.0,0.,24.0,0.,24.0,0.,24.0
1979-03-02 08:20:21.370 ,5,1,0.,24.0,0.,24.0,0.,24.0,0.,24.0
1979-03-02 08:20:45.370 ,6,1,0.,24.0,0.,24.0,0.,24.0,0.,24.0
1979-03-02 08:21:09.370 ,7,1,0.,24.0,0.,24.0,0.,24.0,0.,24.0
1979-03-02 08:21:33.370 ,7,1,0.,24.0,0.,24.0,0.,24.0,0.,24.0
1979-03-02 08:21:57.370 ,6,1,0.,24.0,0.,24.0,0.,24.0,0.,24.0
1979-03-02 08:22:21.370 ,5,1,0.,24.0,0.,24.0,0.,24.0,0.,24.0
1979-03-02 08:22:45.370 ,4,1,0.,24.0,0.,24.0,0.,24.0,0.,24.0
1979-03-02 08:23:09.370 ,3,1,0.,24.0,0.,24.0,0.,24.0,0.,24.0
1979-03-02 08:23:33.370 ,2,1,0.,24.0,0.,24.0,0.,24.0,0.,24.0
1979-03-02 08:23:57.370 ,1,1,0.,24.0,0.,24.0,0.,24.0,0.,24.0
1979-03-02 08:24:21.370 ,0,1,0.,24.0,0.,24.0,0.,24.0,0.,24.0
1979-03-02 08:24:45.370 ,0,1,0.,24.0,0.,24.0,0.,24.0,0.,24.0
1979-03-02 08:25:09.370 ,1,1,0.,24.0,0.,24.0,0.,24.0,0.,24.0
1979-03-02 08:25:33.370 ,2,1,0.,24.0,0.,24.0,0.,24.0,0.,24.0
1979-03-02 08:25:57.370 ,3,1,0.,24.0,0.,24.0,0.,24.0,0.,24.0
1979-03-02 08:26:21.370 ,4,1,0.,24.0,0.,24.0,0.,24.0,0.,24.0
1979-03-02 08:26:45.370 ,5,1,0.,24.0,0.,24.0,0.,24.0,0.,24.0
1979-03-02 08:27:09.370 ,6,1,0.,24.0,0.,24.0,0.,24.0,0.,24.0
1979-03-02 08:27:33.370 ,7,1,0.,24.0,0.,24.0,0.,24.0,0.,24.0
1979-03-02 08:27:57.370 ,7,1,0.,24.0,0.,24.0,0.,24.0,0.,24.0
1979-03-02 08:28:21.370 ,6,1,0.,24.0,0.,24.0,0.,24.0,0.,24.0
1979-03-02 08:28:45.370 ,5,1,0.,24.0,0.,24.0,0.,24.0,0.,24.0
1979-03-02 08:29:09.370 ,4,1,0.,24.0,0.,24.0,0.,24.0,0.,24.0
1979-03-02 08:29:33.370 ,3,1,0.,24.0,0.,24.0,0.,24.0,0.,24.0
1979-03-02 08:29:57.370 ,2,1,0.,24.0,0.,24.0,0.,24.0,0.,24.0
1979-03-02 08:30:21.370 ,1,1,0.,24.0,0.,24.0,0.,24.0,0.,24.0
1979-03-02 08:30:45.370 ,0,1,0.,24.0,0.,24.0,0.,24.0,0.,24.0
1979-03-02 08:31:09.370 ,0,1,0.,24.0,0.,24.0,0.,24.0,0.,24.0
1979-03-02 08:31:33.370 ,1,1,0.,24.0,0.,24.0,0.,24.0,0.,24.0
1979-03-02 08:31:57.370 ,2,1,0.,24.0,0.,24.0,0.,24.0,0.,24.0
1979-03-02 08:32:21.370 ,3,1,0.,24.0,0.,24.0,0.,24.0,0.,24.0
1979-03-02 08:32:45.370 ,4,1,0.,24.0,0.,24.0,0.,24.0,0.,24.0
1979-03-02 08:33:09.370 ,5,1,0.,24.0,0.,24.0,0.,24.0,0.,24.0
1979-03-02 08:33:33.370 ,6,1,0.,24.0,0.,24.0,0.,24.0,0.,24.0
1979-03-02 08:33:57.370 ,7,1,0.,24.0,0.,24.0,0.,24.0,0.,24.0
1979-03-02 08:34:21.370 ,7,1,0.,24.0,0.,24.0,0.,24.0,0.,24.0
1979-03-02 08:34:45.370 ,6,1,0.,24.0,0.,24.0,0.,24.0,0.,24.0
1979-03-02 08:35:09.370 ,5,1,0.,24.0,0.,24.0,0.,24.0,0.,24.0
1979-03-02 08:35:33.370 ,4,1,0.,24.0,0.,24.0,0.,24.0,0.,24.0
1979-03-02 08:35:57.370 ,3,1,0.,24.0,0.,24.0,0.,24.0,0.,24.0
1979-03-02 08:36:21.370 ,2,1,0.,24.0,0.,24.0,0.,24.0,0.,24.0
1979-03-02 08:36:45.370 ,1,1,0.,24.0,0.,24.0,0.,24.0,0.,24.0
1979-03-02 08:37:09.370 ,0,1,0.,24.0,0.,24.0,0.,24.0,0.,24.0
1979-03-02 08:37:33.370 ,0,1,0.,24.0,0.,24.0,0.,24.0,0.,24.0
1979-03-02 08:37:57.370 ,1,1,0.,24.0,0.,24.0,0.,24.0,0.,24.0
1979-03-02 08:38:21.370 ,2,1,0.,24.0,0.,24.0,0.,24.0,0.,24.0
1979-03-02 08:38:45.370 ,3,1,0.,24.0,0.,24.0,0.,24.0,0.,24.0
1979-03-02 08:39:09.370 ,4,1,0.,24.0,0.,24.0,0.,24.0,0.,24.0
1979-03-02 08:39:33.370 ,5,1,0.,24.0,0.,24.0,0.,24.0,0.,24.0
1979-03-02 08:39:57.370 ,6,1,0.,24.0,0.,24.0,0.,24.0,0.,24.0
1979-03-02 08:40:21.370 ,7,1,0.,24.0,0.,24.0,0.,24.0,0.,24.0
1979-03-02 08:40:45.370 ,7,1,0.,24.0,0.,24.0,0.,24.0,0.,24.0
1979-03-02 08:41:09.370 ,6,1,0.,24.0,0.,24.0,0.,24.0,0.,24.0
1979-03-02 08:41:33.370 ,5,1,0.,24.0,0.,24.0,0.,24.0,0.,24.0
1979-03-02 08:41:57.370 ,4,1,0.,24.0,0.,24.0,0.,24.0,0.,24.0
1979-03-02 08:42:21.370 ,3,1,0.,24.0,0.,24.0,0.,24.0,0.,24.0
1979-03-02 08:42:45.370 ,2,1,0.,24.0,0.,24.0,0.,24.0,0.,24.0
1979-03-02 08:43:09.370 ,1,1,0.,24.0,0.,24.0,0.,24.0,0.,24.0
1979-03-02 08:43:33.370 ,0,1,0.,24.0,0.,24.0,0.,24.0,0.,24.0
1979-03-02 08:43:57.370 ,0,1,0.,24.0,0.,24.0,0.,24.0,0.,24.0
1979-03-02 08:44:21.370 ,1,1,0.,24.0,0.,24.0,0.,24.0,0.,24.0
1979-03-02 08:44:45.370 ,2,1,0.,24.0,0.,24.0,0.,24.0,0.,24.0
1979-03-02 08:45:09.370 ,3,1,0.,24.0,0.,24.0,0.,24.0,0.,24.0
1979-03-02 08:45:33.370 ,4,1,0.,24.0,0.,24.0,0.,24.0,0.,24.0
1979-03-02 08:45:57.370 ,5,1,0.,24.0,0.,24.0,0.,24.0,0.,24.0
1979-03-02 08:46:21.370 ,6,1,0.,24.0,0.,24.0,0.,24.0,0.,24.0
1979-03-02 08:46:45.370 ,7,1,0.,24.0,0.,24.0,0.,24.0,0.,24.0
1979-03-02 08:47:09.370 ,7,1,0.,24.0,0.,24.0,0.,24.0,0.,24.0
1979-03-02 08:47:33.370 ,6,1,0.,24.0,0.,24.0,0.,24.0,0.,24.0
1979-03-02 08:47:57.370 ,5,1,0.,24.0,0.,24.0,0.,24.0,0.,24.0
1979-03-02 08:48:21.370 ,4,1,0.,24.0,0.,24.0,0.,24.0,0.,24.0
1979-03-02 08:48:45.370 ,3,1,0.,24.0,0.,24.0,0.,24.0,0.,24.0
1979-03-02 08:49:09.370 ,2,1,0.,24.0,0.,24.0,0.,24.0,0.,24.0
1979-03-02 08:49:33.370 ,1,1,0.,24.0,0.,24.0,0.,24.0,0.,24.0
1979-03-02 08:49:57.370 ,0,1,0.,24.0,0.,24.0,0.,24.0,0.,24.0
1979-03-02 08:50:21.370 ,0,1,0.,24.0,0.,24.0,0.,24.0,0.,24.0
1979-03-02 08:50:45.370 ,1,1,0.,24.0,0.,24.0,0.,24.0,0.,24.0
1979-03-02 08:51:09.370 ,2,1,0.,24.0,0.,24.0,0.,24.0,0.,24.0
1979-03-02 08:51:33.370 ,3,1,0.,24.0,0.,24.0,0.,24.0,0.,24.0
1979-03-02 08:51:57.370 ,4,1,0.,24.0,0.,24.0,0.,24.0,0.,24.0
1979-03-02 08:52:21.370 ,5,1,0.,24.0,0.,24.0,0.,24.0,0.,24.0
1979-03-02 08:52:45.370 ,6,1,0.,24.0,0.,24.0,0.,24.0,0.,24.0
1979-03-02 08:53:09.370 ,7,1,0.,24.0,0.,24.0,0.,24.0,0.,24.0
1979-03-02 08:53:33.370 ,7,1,0.,24.0,0.,24.0,0.,24.0,0.,24.0
1979-03-02 08:53:57.370 ,6,1,0.,24.0,0.,24.0,0.,24.0,0.,24.0
1979-03-02 08:54:21.370 ,5,1,0.,24.0,0.,24.0,0.,24.0,0.,24.0
1979-03-02 08:54:45.370 ,4,1,0.,24.0,0.,24.0,0.,24.0,0.,24.0
1979-03-02 08:55:09.370 ,3,1,0.,24.0,0.,24.0,0.,24.0,0.,24.0
1979-03-02 08:55:33.370 ,2,1,0.,24.0,0.,24.0,0.,24.0,0.,24.0
1979-03-02 08:55:57.370 ,1,1,0.,24.0,0.,24.0,0.,24.0,0.,24.0
1979-03-02 08:56:21.370 ,0,1,0.,24.0,0.,24.0,0.,24.0,0.,24.0
1979-03-02 08:56:45.370 ,0,1,0.,24.0,0.,24.0,0.,24.0,0.,24.0
1979-03-02 08:57:09.370 ,1,1,0.,24.0,0.,24.0,0.,24.0,0.,24.0
1979-03-02 08:58:21.370 ,0,0,0.,24.0,0.,24.0,0.,24.0,0.,24.0
1979-03-02 08:58:45.370 ,5,1,0.,24.0,0.,24.0,0.,24.0,0.,24.0
1979-03-02 08:59:09.370 ,6,1,0.,24.0,0.,24.0,0.,24.0,0.,24.0
1979-03-02 08:59:33.370 ,7,1,0.,24.0,0.,24.0,0.,24.0,0.,24.0
1979-03-02 08:59:57.370 ,7,1,0.,24.0,0.,24.0,0.,24.0,0.,24.0
